FW8697 Weather Reports


Display with metric or nautical units.
time (UTC)temp
F
wind
direction
speed
MPH
gust
MPH
rain 1hr
in
rain 24hr
in
rain mn
in
humidity
%
barometer
mb
20260507014602 64 176 0.0 2.0 0.00 0.00 0.00 65 1017.4
20260507013119 65 176 0.0 2.0 0.00 0.00 0.00 64 1017.2
20260507011607 65 176 0.0 3.0 0.00 0.00 0.00 63 1017.3
20260507010109 66 176 0.0 3.0 0.00 0.00 0.00 63 1017.3
20260507004559 67 179 1.0 5.0 0.00 0.00 0.00 62 1017.3
20260507003106 67 321 0.0 2.0 0.00 0.00 0.00 62 1017.3
20260507001608 68 323 1.0 5.0 0.00 0.00 0.00 62 1017.4
20260507000313 68 189 0.0 3.0 0.00 0.00 0.00 61 1017.3
20260506234617 69 188 1.0 4.0 0.00 0.00 0.00 61 1017.3
20260506233120 69 190 1.0 4.0 0.00 0.00 0.00 60 1017.4
20260506231620 70 184 1.0 4.0 0.00 0.00 0.00 60 1017.4
20260506230103 71 159 2.0 6.0 0.00 0.00 0.00 60 1017.7
20260506224553 71 165 1.0 6.0 0.00 0.00 0.00 59 1017.7
20260506223055 72 159 2.0 8.0 0.00 0.00 0.00 57 1018.1
20260506221557 73 157 2.0 5.0 0.00 0.00 0.00 56 1018.4
20260506220104 73 301 0.0 6.0 0.00 0.00 0.00 55 1018.4
20260506214602 74 284 1.0 4.0 0.00 0.00 0.00 54 1018.6
20260506213114 74 192 1.0 4.0 0.00 0.00 0.00 52 1018.7
20260506211609 75 185 1.0 4.0 0.00 0.00 0.00 51 1018.8
20260506210052 76 160 1.0 5.0 0.00 0.00 0.00 52 1018.8
20260506204556 76 254 1.0 4.0 0.00 0.00 0.00 51 1018.8
20260506203400 77 260 0.0 6.0 0.00 0.00 0.00 50 1018.9
20260506202032 78 224 1.0 4.0 0.00 0.00 0.00 48 1019.3
20260506200106 78 231 1.0 4.0 0.00 0.00 0.00 48 1019.1
20260506194902 78 227 1.0 3.0 0.00 0.00 0.00 47 1019.3
20260506193058 79 233 0.0 4.0 0.00 0.00 0.00 47 1019.4
20260506191555 77 217 0.0 4.0 0.00 0.00 0.00 47 1019.4
20260506190109 77 223 0.0 3.0 0.00 0.00 0.00 45 1019.5
20260506184559 76 223 0.0 5.0 0.00 0.00 0.00 46 1019.5
20260506183109 75 206 1.0 4.0 0.00 0.00 0.00 48 1019.5
20260506181553 74 190 0.0 5.0 0.00 0.00 0.00 52 1019.6
20260506180059 72 204 1.0 3.0 0.00 0.00 0.00 51 1019.8
20260506174557 71 196 0.0 3.0 0.00 0.00 0.00 53 1019.7
20260506173108 68 186 0.0 3.0 0.00 0.00 0.00 59 1019.7
20260506171832 65 186 0.0 3.0 0.00 0.00 0.00 65 1019.6
20260506170039 62 182 0.0 2.0 0.00 0.00 0.00 73 1019.5
20260506164554 60 178 0.0 3.0 0.00 0.00 0.00 79 1019.4
20260506163047 58 177 0.0 3.0 0.00 0.00 0.00 86 1019.5
20260506161553 57 181 0.0 2.0 0.00 0.00 0.00 90 1019.7
20260506160104 56 181 0.0 1.0 0.00 0.00 0.00 92 1019.6
20260506154554 55 181 0.0 2.0 0.00 0.00 0.00 92 1019.3
20260506153042 55 181 0.0 1.0 0.00 0.00 0.00 93 1019.3
20260506151607 54 181 0.0 1.0 0.00 0.00 0.00 93 1019.3
20260506150046 52 181 0.0 1.0 0.00 0.00 0.00 93 1019.3
20260506144548 49 181 0.0 0.0 0.00 0.00 0.00 93 1019.4
20260506143053 45 181 0.0 0.0 0.00 0.00 0.00 93 1019.3
20260506141608 43 181 0.0 1.0 0.00 0.00 0.00 91 1019.4
20260506140053 42 181 0.0 1.0 0.00 0.00 0.00 91 1019.0
20260506134555 41 181 0.0 0.0 0.00 0.00 0.00 90 1018.8
20260506133059 41 181 0.0 0.0 0.00 0.00 0.00 90 1019.0
20260506131601 41 181 0.0 0.0 0.00 0.00 0.00 89 1018.7
20260506130115 42 181 0.0 0.0 0.00 0.00 0.00 89 1018.6
20260506124605 42 181 0.0 0.0 0.00 0.00 0.00 89 1018.6
20260506123109 42 181 0.0 0.0 0.00 0.00 0.00 89 1018.3
20260506121614 42 181 0.0 0.0 0.00 0.00 0.00 89 1018.3
20260506120118 43 181 0.0 0.0 0.00 0.00 0.00 89 1018.3
20260506114559 43 181 0.0 0.0 0.00 0.00 0.00 89 1018.4
20260506113106 43 181 0.0 0.0 0.00 0.00 0.00 89 1018.3
20260506111559 43 181 0.0 0.0 0.00 0.00 0.00 89 1018.3
20260506110056 43 181 0.0 0.0 0.00 0.00 0.00 89 1018.3
20260506104602 43 181 0.0 0.0 0.00 0.00 0.00 89 1018.3
20260506103053 43 181 0.0 0.0 0.00 0.00 0.00 89 1018.3
20260506101611 43 181 0.0 0.0 0.00 0.00 0.00 88 1018.2
20260506100109 44 181 0.0 0.0 0.00 0.00 0.00 88 1018.4
20260506094556 44 181 0.0 0.0 0.00 0.00 0.00 88 1018.5
20260506093053 44 181 0.0 0.0 0.00 0.00 0.00 88 1018.4
20260506091557 45 181 0.0 0.0 0.00 0.00 0.00 88 1018.5
20260506090319 45 181 0.0 0.0 0.00 0.00 0.00 88 1018.6
20260506084606 45 181 0.0 0.0 0.00 0.00 0.00 88 1018.6
20260506083110 46 181 0.0 0.0 0.00 0.00 0.00 88 1018.7
20260506081827 46 181 0.0 0.0 0.00 0.00 0.00 88 1018.8
20260506073102 46 181 0.0 1.0 0.00 0.00 0.00 88 1018.8
20260506071558 46 181 0.0 1.0 0.00 0.00 0.00 87 1018.7
20260506070114 46 181 0.0 1.0 0.00 0.00 0.00 86 1018.6
20260506061608 47 181 0.0 0.0 0.00 0.00 0.00 85 1018.2
20260506060108 47 181 0.0 0.0 0.00 0.00 0.00 85 1018.3
20260506050115 49 182 0.0 0.0 0.00 0.00 0.00 83 1017.4
20260506044611 50 182 0.0 0.0 0.00 0.00 0.00 82 1017.5
20260506043121 51 182 0.0 0.0 0.00 0.00 0.00 82 1017.3
20260506041616 52 182 0.0 0.0 0.00 0.00 0.00 81 1017.1
20260506040109 53 182 0.0 0.0 0.00 0.00 0.00 80 1017.0
20260506034611 54 182 0.0 0.0 0.00 0.00 0.00 79 1016.8
20260506033120 55 182 0.0 0.0 0.00 0.00 0.00 79 1016.4
20260506031526 56 182 0.0 0.0 0.00 0.00 0.00 77 1016.4
20260506030119 58 182 0.0 0.0 0.00 0.00 0.00 76 1016.2
20260506024628 58 182 0.0 1.0 0.00 0.00 0.00 76 1015.8
20260506023128 59 182 0.0 1.0 0.00 0.00 0.00 75 1015.5
20260506021623 59 182 0.0 1.0 0.00 0.00 0.00 74 1015.5
20260506020051 60 182 0.0 2.0 0.00 0.00 0.00 73 1015.4